Regional Weather Roundup
Issued by NWS Pendleton, OR

Home | Current Version | Previous Version | Text Only | Print | Product List | Glossary On
Versions: 1 2 3 4 5 6 7 8 9 10 11 12 13 14 15 16 17 18 19 20 21 22 23 24 25 26 27 28 29 30 31 32 33 34 35 36 37 38 39 40 41 42 43 44 45 46 47 48 49 50
006
ASUS46 KPDT 221925
RWRPDT
PENDLETON REGIONAL WEATHER ROUNDUP
NATIONAL WEATHER SERVICE PENDLETON OREGON
1200 PM PDT FRI MAY 22 2015

NOTE: FAIR INDICATES FEW OR NO CLOUDS BELOW 12,000 FEET WITH NO
SIGNIFICANT WEATHER AND/OR OBSTRUCTIONS TO VISIBILITY.

# INDICATES UNOFFICIAL STATION AND DATA

WAZ520-222010-
EAST SLOPES OF WASHINGTON CASCADES

CITY            SKY/WX      TMP DP  RH  WIND    PRES   REMARKS
#BULLFROG 2SW   N/A         64  53  67  N5      27.52S
#BUMPING DAM    N/A         53  N/A N/A CALM    N/A
#CLE ELUM HS    N/A         67  53  61  W5      29.86S
#CLE ELUM LAKE  N/A         64  53  67  CALM    29.79S
#CLIFFDEL 2NW   N/A         60  54  81  N1      N/A
#GLENWOOD       N/A         62  57  84  S5      29.86R
#MANASTASH CYN  N/A         67  51  56  NW2     29.89S
#NELSON         N/A         67  56  68  CALM    29.83S
#NELSON 3SW     N/A         64  55  73  CALM    30.00F
#NILE           N/A         66  54  65  W1      29.13R
#RONALD 2NW     N/A         64  37  37  CALM    29.80S
#SNOWDEN        N/A         57  42  57  NW1     N/A
#TEANAWAY 4NE   N/A         66  61  84  SW1     N/A
#TROUT LAKE 1NE N/A         62  53  72  SW6     29.87R
$$

WAZ521-222010-
SIMCOE HIGHLANDS

CITY            SKY/WX      TMP DP  RH  WIND    PRES   REMARKS
#CENTERVILLE 4W N/A         66  53  63  NW18    29.65R
#CENTERVILLE 1SWN/A         65  52  63  W15     29.81R
#GOLDENDALE     N/A         65  53  65  W8      N/A
#GOLDENDALE 1NE N/A         66  43  43  SW3     N/A
#GOLDENDALE 5WNWN/A         66  55  68  SW13    29.82S
#GOODNOE HILLS  N/A         71  54  55  SW12    N/A
#LYLE 6NE       N/A         60  52  75  SW8     29.85S
$$

WAZ026-222010-
KITTITAS VALLEY

CITY            SKY/WX      TMP DP  RH  WIND    PRES   REMARKS
ELLENSBURG AP   MOCLDY      73  55  53  NW8     29.87S
YTC-OPS AREA    N/A         68  50  53  S12     29.89S
#ELLENSBURG CWU N/A         72  54  53  W8      29.76R
#ELLENSBURG 3NE N/A         68  56  65  N2      29.88S
#ELLENSBURG 1E  N/A         73  54  51  CALM    N/A
#KITTITAS 4N    N/A         75  56  52  NW1     28.19S
#KITTITAS 3S    N/A         72  54  53  CALM    29.79S
#THORP 6N       N/A         64  55  73  W10     29.82S
$$

WAZ027-222010-
YAKIMA VALLEY

CITY            SKY/WX      TMP DP  RH  WIND    PRES   REMARKS
SUNNYSIDE AP    THUNDER     65  58  78  W13     29.87S
YAKIMA AIRPORT  LGT RAIN    66  55  68  W14     29.88F
#DONALD 2NE     N/A         66  55  68  SW1     28.74R
#GRANDVIEW      N/A         69  56  63  W5      29.85S
#MABTON         N/A         68  59  73  W6      29.86S
#MOXEE 2E       N/A         65  45  48  SW3     29.78
#NACHES 2SW     N/A         65  57  75  W2      29.92R
#OUTLOOK DOT    N/A         N/A N/A N/A W7      N/A
#SELAH 8E       N/A         70  52  53  W15     N/A
#TERRACE HTS    N/A         69  57  66  W3      29.80F
#TOPPENISH      N/A         61  57  87  NW3     29.77R
#WAPATO 4NE     N/A         66  55  68  SW1     28.74R
#WEST VALLEY    N/A         63  55  75  W3      29.83S
#W YAKIMA       N/A         65  55  70  W5      29.83F
#WHITE SWAN 5E  N/A         60  58  93  W9      29.86S
#WILEY CITY 3W  N/A         61  51  70  W5      29.87R
$$

WAZ028-222010-
LOWER COLUMBIA BASIN...WASHINGTON

CITY            SKY/WX      TMP DP  RH  WIND    PRES   REMARKS
HANFORD         PTCLDY      81  47  30  NW9     29.82F
PASCO           PTCLDY      79  54  42  SW9     29.82F
#BASIN CITY 5SW N/A         79  55  44  CALM    29.82F
#BENTON CITY    N/A         71  56  59  W13     29.72S
#CONNELL 5N     N/A         76  56  50  NW7     29.78F
#CONNELL 5NW    N/A         75  57  54  SW3     29.75F
#ELTOPIA        N/A         80  57  45  S1      29.76F
#ELTOPIA 6NW    N/A         74  55  51  SW7     28.80F
#KAHLOTUS       N/A         74  54  50  W5      29.78F
#KENNEWICK      N/A         64  53  67  N5      27.52S
#KENNEWICK 3S   N/A         77  59  54  NW2     29.80F
#PATERSON       N/A         71  59  66  CALM    29.82F
#PROSSER        N/A         69  55  61  SW10    29.83S
#SAGEMOOR 2W    N/A         77  61  58  W2      29.65F
#TOUCHET 2S     N/A         75  62  64  SW3     29.79S
#WEST PASCO     N/A         80  59  49  W5      29.78F
$$

WAZ029-222010-
FOOTHILLS OF THE BLUES...WASHINGTON

CITY            SKY/WX      TMP DP  RH  WIND    PRES   REMARKS
WALLA WALLA AP  MOCLDY      72  56  57  S7      29.85S
#DAYTON SCHOOL  N/A         71  52  51  SW2     29.88S
#LOWDEN 2SE     N/A         74  59  59  W5      29.80S
#PLEASANT VIEW 1N/A         75  56  52  SW3     29.82F
#PRESCOTT       N/A         75  60  60  S2      29.80S
#SUDBURY        N/A         77  N/A N/A CALM    N/A
#WHITMAN COLLEGEN/A         71  57  61  W5      29.85F
#WAITSBURG 8N   N/A         75  33  21  S10     29.68F
#WALLA WALLA U  N/A         75  59  58  CALM    29.80S
#WHITMAN MISSIONN/A         74  60  62  W1      29.82S
$$

WAZ030-222010-
BLUE MOUNTAINS...WASHINGTON

CITY            SKY/WX      TMP DP  RH  WIND    PRES   REMARKS
#DIXIE 5SE      N/A         59  52  78  SW6     29.85S
$$

ORZ009-041-WAZ024-222010-
COLUMBIA RIVER GORGE

CITY            SKY/WX      TMP DP  RH  WIND    PRES   REMARKS
HOOD RIVER AP   CLOUDY      59  50  72  NW6     29.95R
THE DALLES AP   PTCLDY      70  50  49  NW21G31 29.90R
#ARLINGTON AIRPON/A         70  53  55  W12     29.81S
#CELILO DOT     N/A         73  52  48  SW8     N/A
#MOSIER 1S      N/A         59  42  53  W10     29.91S
#MURDOCK        N/A         65  53  65  NW29    29.91R
#RUFUS DOT      N/A         71  52  51  SE7     N/A

$$

ORZ510-222010-
NORTH CENTRAL OREGON

CITY            SKY/WX      TMP DP  RH  WIND    PRES   REMARKS
#CHENOWITH 1W   N/A         58  48  69  W32     N/A
#COW CYN RST AREN/A         61  52  72  W6      N/A
#DUFUR 9E       N/A         59  52  78  NW9     29.90R
#GRASS VALLEY 1SN/A         61  56  84  NW5     29.89S
#KENT DOT       N/A         66  46  48  NW8     N/A
#MAUPIN SCHOOL  N/A         71  54  55  W7      29.90S
#MORO SCHOOL    N/A         62  55  78  W7      29.93R
#SHANIKO 5WSW   N/A         63  42  46  S3      N/A
#SHANIKO 4NW    N/A         59  48  67  NW7     29.94F
#TYGH VALLEY 2NEN/A         68  59  73  CALM    29.85F
#WAPANITIA AIRPON/A         66  53  63  W7      29.87S
#WASCO DOT      N/A         67  47  49  W8      N/A
#WASCO 5NE      N/A         66  51  58  N10     29.85R
$$

ORZ511-222010-
CENTRAL OREGON

CITY            SKY/WX      TMP DP  RH  WIND    PRES   REMARKS
BEND AIRPORT    MOCLDY      57  52  83  N3      29.96F
MADRAS AIRPORT  CLOUDY      61  54  78  CALM    29.95F
PRINEVILLE AP   MOCLDY      61  54  78  VRB5    29.94F
REDMOND AIRPORT CLOUDY      57  53  86  VRB3    29.95F
#BEND 1SW       N/A         60  53  78  E5      N/A
#BEND-AWBREY    N/A         62  52  70  N8      29.88F
#BEND-KIM LN    N/A         61  53  75  NW2     29.93F
#CROOKED RVR RANN/A         69  55  61  W1      29.86F
#CULVER         N/A         64  54  70  S1      29.90F
#LAKE BILLY CHINN/A         62  34  35  W5      29.99F
#POWELL BUTTE 3EN/A         55  53  93  W3      N/A
#POWELL BUTTE   N/A         62  56  81  N2      29.59F
#PRINEVILLE 3N  N/A         60  54  81  S2      29.83F
#WARM SPRINGS   N/A         67  55  65  S6      29.89F

$$


ORZ509-222010-
EAST SLOPES OF OREGON CASCADES

CITY            SKY/WX      TMP DP  RH  WIND    PRES   REMARKS
#BLUE BOX PASS  N/A         48  -4  11  S1      N/A
#CAMP SHERMAN   N/A         62  55  78  CALM    29.87F
#LA PINE 4NW    N/A         54  48  80  CALM    29.92R
#SISTERS AIRPOR N/A         58  53  83  VRB5    30.17S
#SISTERS ODOT   N/A         60  N/A N/A S7      N/A
#SISTERS 3N     N/A         60  49  67  W3      29.99S
#SUNRIVER       N/A         58  51  77  CALM    29.76S
#TUMALO 3W      N/A         58  50  75  N6      29.76F
#WANOGA BUTTE D N/A         46  45  96  CALM    N/A

$$

ORZ044-222010-
LOWER COLUMBIA BASIN...OREGON

CITY            SKY/WX      TMP DP  RH  WIND    PRES   REMARKS
HERMISTON       PTCLDY      75  53  46  NW12    29.85S
#BOARDMAN SCHOOLN/A         70  57  63  W3      29.86S
#ECHO 8SW       N/A         71  55  57  W7      29.86S
#IONE SCHOOL    N/A         67  50  54  SW10    29.85S
#IRRIGON 4NW    N/A         71  58  64  S7      N/A
#UMATILLA SCHOOLN/A         73  63  71  W8      29.90S
#UMATILLA       N/A         72  56  57  W1      29.76F
$$

ORZ507-222010-
NORTHERN FOOTHILLS OF THE BLUES

CITY            SKY/WX      TMP DP  RH  WIND    PRES   REMARKS
PENDLETON AIRPT PTCLDY      70  56  61  NW13    29.87S
#ADAMS 3WNW     N/A         69  58  68  SW5     29.81F
#ATHENA         N/A         68  56  65  SW6     29.84R
#CAYUSE         N/A         67  57  70  W6      29.82R
#HELIX SCHOOL   N/A         70  56  61  W7      29.81S
#HELIX 3N       N/A         69  55  61  W9      29.86R
#HOLDMAN 5SE    N/A         70  57  63  W8      29.88S
#HOLDMAN 6E     N/A         70  55  59  E8      29.63S
#M-F FERNDALE   N/A         80  60  51  CALM    29.84R
#M-F GROVE ELEM N/A         72  53  51  CALM    29.84S
#M-FREEWATER 5SEN/A         69  58  68  CALM    29.86R
#PENDLETON DNTN N/A         76  54  46  NW2     29.84F
#PDT AQUATIC CTRN/A         72  59  64  W7      29.89S
#PENDLETON 5NE  N/A         70  59  68  CALM    29.84S
#PDT SUNRIDGE   N/A         72  59  64  W5      29.88R
#PENDLETON 7NW  N/A         71  60  68  W12     29.80S
#PILOT ROCK     N/A         68  53  59  N1      29.89S
#TUTUILLA       N/A         70  58  66  W3      29.84F
#UMAPINE 2E     N/A         75  61  62  NW2     29.81S
#WESTON SCHOOL  N/A         66  53  63  N1      29.86R

$$

ORZ508-222010-
SOUTHERN FOOTHILLS OF THE BLUES

CITY            SKY/WX      TMP DP  RH  WIND    PRES   REMARKS
#AJAX           N/A         65  49  56  S152    29.76S
#CONDON 5W      N/A         60  51  72  W9      29.91R
#FOSSIL SCHOOL  N/A         64  53  67  W2      29.89F
#HEPPNER EOC    N/A         66  54  65  W7      29.77S
#HEPPNER 4NE    N/A         65  53  65  W8      29.83S
#LEXINGTON 2SE  N/A         69  56  63  W7      29.85F
#OLEX 4N        N/A         59  54  83  W15     29.87S
#RUGGS 5NE      N/A         62  55  78  W6      30.07S
#RUGGS 2SW      N/A         62  54  75  W3      29.86S

$$

ORZ502-503-222010-
BLUE MOUNTAINS

CITY            SKY/WX      TMP DP  RH  WIND    PRES   REMARKS
MEACHAM         CLOUDY      64  53  67  VRB7    29.92S
#BATTLE MTN DOT N/A         53  52  96  CALM    N/A
#HEPPNER 15SE   N/A         55  51  86  NW1     29.84S
#LADD CYN SMT   N/A         65  46  50  N8      N/A
#LONG CREEK HS  N/A         61  54  78  CALM    29.86F
#N POWDER DOT   N/A         65  50  58  SE1     N/A
#PIKES PEAK     N/A         56  52  86  S9      27.99S
#TOLLGATE       N/A         52  51  96  NE1     29.90R
#TROY SCHOOL    N/A         80  59  49  SE3     29.60F
#UKIAH          N/A         60  53  78  N9      29.85F
#WESTON 4E      N/A         59  53  80  SW3     29.77R
$$

ORZ505-222010-
JOHN DAY BASIN

CITY            SKY/WX      TMP DP  RH  WIND    PRES   REMARKS
JOHN DAY        PTCLDY      65  50  58  W7      29.91F
#JOHN DAY KJDY  N/A         73  53  49  W2      29.93F
#DAYVILLE SCHOOLN/A         68  51  55  N1      29.86F
#MONUMENT HS    N/A         70  51  51  CALM    29.88F
#MT. VERNON 5SE N/A         61  51  70  W1      29.87F
$$

ORZ506-222010-
OCHOCO AND JOHN DAY HIGHLANDS

CITY            SKY/WX      TMP DP  RH  WIND    PRES   REMARKS
#BUCK CREEK DOT N/A         60  60  100 W8      N/A
#HORSE RIDGE DO N/A         56  48  74  NW7     N/A
#PAULINA SCHOOL N/A         64  53  67  S5      29.91F
#PINE MTN OBS   N/A         44  43  96  NW2     N/A
#PRAIRIE CITY   N/A         69  54  59  CALM    29.76F
#SENECA         N/A         63  N/A N/A SW2     N/A
#SENECA 9NW     N/A         58  49  72  CALM    29.81F
$$

ORZ049-222010-
GRANDE RONDE VALLEY

CITY            SKY/WX      TMP DP  RH  WIND    PRES   REMARKS
LA GRANDE       THUNDER     72  48  43  N5      29.85F
#COVE           N/A         65  59  81  S1      29.88F
#COVE SCHOOL    N/A         67  55  65  CALM    29.86F
#ELGIN 3N       N/A         74  49  41  CALM    29.84F
#ELGIN 1E       N/A         71  52  51  CALM    N/A
#IMBLER SCHOOL  N/A         70  52  53  N3      29.82F
#ISLAND CITY 4N N/A         58  53  83  S1      30.00S
#LADD CYN DOT   N/A         70  49  47  NW6     N/A
#LA GRANDE ELEM N/A         71  53  53  NE5     29.88F
#UNION 1S       N/A         67  55  65  NW2     29.71F
$$

ORZ050-222010-
WALLOWA COUNTY

CITY            SKY/WX      TMP DP  RH  WIND    PRES   REMARKS
JOSEPH AIRPORT  N/A         66  45  47  CALM    29.91F
#ENTERPRISE HS  N/A         67  50  54  CALM    29.91F
#IMNAHA SCHOOL  N/A         71  53  53  S5      29.83F
#JOSEPH 3N      N/A         64  44  48  CALM    29.93F
#JOSEPH 3W      N/A         65  47  52  N2      29.78F
#LOSTINE        N/A         69  48  47  NE1     29.59F
#MT HOWARD 8000 N/A         45  N/A N/A N2      30.04F
#PROMISE 1S     N/A         62  52  70  CALM    29.88F
#SHEEP RDG 7000 N/A         49  43  80  CALM    29.86S
#WALLOWA SCHOOL N/A         71  53  53  CALM    30.68F



$$



USA.gov is the U.S. government's official web portal to all federal, state and local government web resources and services.